Погода в Ямской Слободе

Россия / Новгородская область     58°15′45″N   32°30′55″E
темп.,
°C
ветер,
м/с
пор.,
м/с
влажн.,
%
обл.,
%
осадки,
мм/ч
давл.,
гПа
погр.,
м
28 ноября, вс
вс2800:000св3798100 0.9 994437
03:000ссв3798100 2.1 994374
06:00−1ссв379796 0.5 994281
09:00−2ссз1298100 1.3 996126
12:00−2зюз249298 0.6 999357
15:00−2зюз3792100 0.7 1001613
18:00−3зюз3585100 0.0 1003586
21:00−3юз2491100 0.1 1006355
29 ноября, пн
пн2900:00−3сз1294100 0.0 1007165
03:00−3всв1394100 0.1 1007180
06:00−4всв379498 0.0 1006245
09:00−4всв3109396 0.0 1005280
12:00−3всв51192100 0.0 1003380
15:00−2всв51295100 1.0 1000417
18:00−1в51291100 0.6 996453
21:00+1в41295100 1.0 992427
30 ноября, вт
вт3000:00+2вюв31199100 0.0 989521
03:00+2в41299100 0.2 986519
06:00+2в41298100 0.1 981483
09:00+1всв3998100 0.3 979477
12:00+1ссв2599100 0.2 977381
15:00+1ссз2499100 0.3 976236
18:000зсз2699100 0.3 976380
21:00−1з5998100 1.1 977549
1 декабря, ср
ср100:00−3зсз51095100 1.2 979581
03:00−4зсз51094100 2.1 982762
06:00−5з51091100 0.3 984738
09:00−5з5989100 0.4 986807
12:00−5з5988100 0.1 989784
15:00−6з498899 0.1 990745
18:00−6з4109165 0.1 992563
21:00−7зюз4993100 0.2 993531
2 декабря, чт
чт200:00−8юз399697 0.1 994341
03:00−9ююз259777 0.1 993188
06:00−8ююв2693100 0.0 992209
09:00−6юв3792100 0.1 990323
12:00−5юв41093100 0.8 988534
15:00−4вюв4995100 1.9 986403
18:000ююв31199100 2.3 985669
21:00+1ююз51196100 2.8 985950